TimeEDT,TemperatureF,Dew PointF,Humidity,Sea Level PressureIn,VisibilityMPH,Wind Direction,Wind SpeedMPH,Gust SpeedMPH,PrecipitationIn,Events,Conditions,WindDirDegrees,DateUTC
12:53 AM,82.9,75.0,77,30.10,10.0,SE,18.4,21.9,N/A,,Scattered Clouds,140,2013-07-05 04:53:00
1:53 AM,81.0,73.9,79,30.08,10.0,SSE,13.8,-,0.02,,Clear,150,2013-07-05 05:53:00
2:53 AM,81.0,73.0,77,30.06,10.0,SE,12.7,-,N/A,,Clear,130,2013-07-05 06:53:00
3:53 AM,81.0,73.9,79,30.04,10.0,SE,11.5,-,N/A,,Partly Cloudy,130,2013-07-05 07:53:00
4:53 AM,81.0,73.0,77,30.04,10.0,SE,15.0,-,N/A,,Partly Cloudy,130,2013-07-05 08:53:00
5:53 AM,81.0,73.9,79,30.03,10.0,SE,13.8,-,N/A,,Clear,130,2013-07-05 09:53:00
6:53 AM,82.0,73.0,74,30.04,10.0,SE,12.7,-,N/A,,Clear,130,2013-07-05 10:53:00
7:53 AM,82.9,75.0,77,30.06,10.0,ESE,11.5,-,N/A,,Partly Cloudy,110,2013-07-05 11:53:00
8:53 AM,82.0,75.9,82,30.07,10.0,ESE,10.4,-,0.04,,Scattered Clouds,120,2013-07-05 12:53:00
9:53 AM,82.0,73.9,76,30.09,10.0,SSE,17.3,21.9,N/A,,Scattered Clouds,150,2013-07-05 13:53:00
10:53 AM,79.0,73.9,84,30.09,9.0,East,19.6,28.8,0.00,Rain,Light Rain,100,2013-07-05 14:53:00
11:53 AM,81.0,75.0,82,30.10,10.0,East,13.8,21.9,0.00,,Partly Cloudy,100,2013-07-05 15:53:00
12:53 PM,84.0,75.9,76,30.10,10.0,East,15.0,-,N/A,,Partly Cloudy,100,2013-07-05 16:53:00
1:53 PM,86.0,73.9,67,30.08,10.0,ESE,17.3,-,N/A,,Clear,120,2013-07-05 17:53:00
2:53 PM,87.1,77.0,72,30.06,10.0,ESE,12.7,-,N/A,,Partly Cloudy,110,2013-07-05 18:53:00
3:16 PM,78.8,71.6,78,30.09,2.0,SE,31.1,39.1,0.00,Rain,Rain,140,2013-07-05 19:16:00
3:18 PM,78.8,71.6,78,30.10,1.0,SSE,27.6,39.1,0.00,Rain,Heavy Rain,150,2013-07-05 19:18:00
3:21 PM,75.2,71.6,89,30.09,0.5,SE,23.0,39.1,0.07,Fog-Rain,Heavy Rain,140,2013-07-05 19:21:00
3:30 PM,77.0,73.4,89,30.08,1.0,SE,13.8,-,0.27,Rain,Heavy Rain,140,2013-07-05 19:30:00
3:34 PM,77.0,73.4,89,30.08,2.0,SE,13.8,-,0.29,Rain,Rain,130,2013-07-05 19:34:00
3:41 PM,77.0,73.4,89,30.08,3.0,ESE,13.8,-,0.30,Rain,Rain,110,2013-07-05 19:41:00
3:53 PM,78.1,73.9,87,30.07,5.0,ESE,8.1,-,0.32,Rain,Light Rain,110,2013-07-05 19:53:00
4:01 PM,77.0,73.4,89,30.07,6.0,East,11.5,-,0.00,Rain,Light Rain,90,2013-07-05 20:01:00
4:53 PM,79.0,73.9,84,30.06,10.0,ESE,9.2,-,0.04,Rain,Light Rain,120,2013-07-05 20:53:00
5:53 PM,80.1,73.9,81,30.05,10.0,East,8.1,-,0.00,,Scattered Clouds,90,2013-07-05 21:53:00
6:24 PM,78.8,73.4,83,30.04,10.0,East,13.8,25.3,N/A,,Mostly Cloudy,90,2013-07-05 22:24:00
6:32 PM,78.8,73.4,83,30.04,10.0,East,11.5,-,N/A,,Scattered Clouds,90,2013-07-05 22:32:00
6:53 PM,80.1,73.0,79,30.04,10.0,ESE,12.7,-,N/A,,Clear,110,2013-07-05 22:53:00
7:53 PM,79.0,73.0,82,30.05,10.0,East,5.8,-,N/A,,Clear,80,2013-07-05 23:53:00
8:53 PM,82.0,75.9,82,30.07,10.0,East,10.4,-,0.00,Rain,Light Rain,100,2013-07-06 00:53:00
9:53 PM,81.0,75.9,85,30.07,10.0,East,4.6,-,0.00,,Scattered Clouds,80,2013-07-06 01:53:00
10:53 PM,82.0,75.0,79,30.09,10.0,East,5.8,-,N/A,,Clear,90,2013-07-06 02:53:00
11:11 PM,82.4,75.2,79,30.08,10.0,East,6.9,-,N/A,Thunderstorm,Clear,80,2013-07-06 03:11:00
11:39 PM,78.8,71.6,78,30.09,3.0,ESE,12.7,24.2,0.02,Rain,Heavy Rain,120,2013-07-06 03:39:00
11:53 PM,78.1,72.0,81,30.08,5.0,East,4.6,-,0.09,Rain,Rain,100,2013-07-06 03:53:00